Time,TemperatureF,DewpointF,PressureIn,WindDirection,WindDirectionDegrees,WindSpeedMPH,WindSpeedGustMPH,Humidity,HourlyPrecipIn,Conditions,Clouds,dailyrainin,SoftwareType,DateUTC
2013-08-08 00:05:00,50.5,48.8,29.92,SE,140,0.0,0.0,94,0.00,,,0.12,Wunderground v.1.15,2013-08-08 06:05:00,
2013-08-08 00:15:00,50.3,48.6,29.92,SE,140,0.0,0.0,94,0.00,,,0.12,Wunderground v.1.15,2013-08-08 06:15:00,
2013-08-08 00:25:00,50.2,48.5,29.92,SE,140,0.0,0.0,94,0.00,,,0.12,Wunderground v.1.15,2013-08-08 06:25:00,
2013-08-08 00:35:00,50.2,48.5,29.92,SE,140,0.0,0.0,94,0.00,,,0.12,Wunderground v.1.15,2013-08-08 06:35:00,
2013-08-08 00:45:00,50.1,48.4,29.92,SE,140,0.0,0.0,94,0.00,,,0.12,Wunderground v.1.15,2013-08-08 06:45:00,
2013-08-08 00:50:00,50.1,48.4,29.91,SE,140,0.0,0.0,94,0.00,,,0.12,Wunderground v.1.15,2013-08-08 06:50:00,
2013-08-08 01:00:00,50.0,48.3,29.91,SE,140,0.0,0.0,94,0.00,,,0.00,Wunderground v.1.15,2013-08-08 07:00:00,
2013-08-08 01:10:00,49.9,48.5,29.91,SE,140,0.0,0.0,95,0.00,,,0.00,Wunderground v.1.15,2013-08-08 07:10:00,
2013-08-08 01:15:00,49.8,48.1,29.91,SE,140,0.0,0.0,94,0.00,,,0.00,Wunderground v.1.15,2013-08-08 07:15:00,
2013-08-08 01:25:00,49.8,48.1,29.91,SE,140,0.0,0.0,94,0.00,,,0.00,Wunderground v.1.15,2013-08-08 07:25:00,
2013-08-08 01:35:00,49.8,48.1,29.91,SE,140,0.0,0.0,94,0.00,,,0.00,Wunderground v.1.15,2013-08-08 07:35:00,
2013-08-08 01:45:00,49.8,48.4,29.91,SE,140,0.0,0.0,95,0.00,,,0.00,Wunderground v.1.15,2013-08-08 07:45:00,
2013-08-08 01:55:00,49.8,48.4,29.91,SE,140,0.0,0.0,95,0.00,,,0.00,Wunderground v.1.15,2013-08-08 07:55:00,
2013-08-08 02:05:00,49.8,48.4,29.91,SE,140,0.0,0.0,95,0.00,,,0.00,Wunderground v.1.15,2013-08-08 08:05:00,
2013-08-08 02:15:00,49.7,48.3,29.91,SE,140,0.0,0.0,95,0.00,,,0.00,Wunderground v.1.15,2013-08-08 08:15:00,
2013-08-08 02:25:00,49.7,48.3,29.91,SE,140,0.0,0.0,95,0.00,,,0.00,Wunderground v.1.15,2013-08-08 08:25:00,
2013-08-08 02:35:00,49.7,48.3,29.91,SE,140,0.0,0.0,95,0.00,,,0.00,Wunderground v.1.15,2013-08-08 08:35:00,
2013-08-08 02:45:00,49.6,48.2,29.91,SE,140,0.0,0.0,95,0.00,,,0.00,Wunderground v.1.15,2013-08-08 08:45:00,
2013-08-08 02:55:00,49.5,48.1,29.91,SE,140,0.0,0.0,95,0.00,,,0.00,Wunderground v.1.15,2013-08-08 08:55:00,
2013-08-08 03:05:00,49.5,48.1,29.91,SE,140,0.0,0.0,95,0.00,,,0.00,Wunderground v.1.15,2013-08-08 09:05:00,
2013-08-08 03:10:00,49.5,48.1,29.90,SE,140,0.0,0.0,95,0.00,,,0.00,Wunderground v.1.15,2013-08-08 09:10:00,
2013-08-08 03:15:00,49.5,48.1,29.90,SE,140,0.0,0.0,95,0.00,,,0.00,Wunderground v.1.15,2013-08-08 09:15:00,
2013-08-08 03:25:00,49.5,48.1,29.90,SE,140,0.0,0.0,95,0.00,,,0.00,Wunderground v.1.15,2013-08-08 09:25:00,
2013-08-08 03:35:00,49.4,48.0,29.90,SE,140,0.0,0.0,95,0.00,,,0.00,Wunderground v.1.15,2013-08-08 09:35:00,
2013-08-08 03:45:00,49.2,47.8,29.91,SE,140,0.0,0.0,95,0.00,,,0.00,Wunderground v.1.15,2013-08-08 09:45:00,
2013-08-08 03:55:00,49.2,47.8,29.90,SE,140,0.0,0.0,95,0.00,,,0.00,Wunderground v.1.15,2013-08-08 09:55:00,
2013-08-08 04:05:00,49.2,47.8,29.91,SE,140,0.0,0.0,95,0.00,,,0.00,Wunderground v.1.15,2013-08-08 10:05:00,
2013-08-08 04:15:00,49.1,47.7,29.91,SE,140,0.0,0.0,95,0.00,,,0.00,Wunderground v.1.15,2013-08-08 10:15:00,
2013-08-08 04:25:00,49.0,47.6,29.91,SE,140,0.0,0.0,95,0.00,,,0.00,Wunderground v.1.15,2013-08-08 10:25:00,
2013-08-08 04:35:00,49.1,47.7,29.90,SE,140,0.0,0.0,95,0.00,,,0.00,Wunderground v.1.15,2013-08-08 10:35:00,
2013-08-08 04:45:00,49.1,47.7,29.91,SE,140,0.0,0.0,95,0.00,,,0.00,Wunderground v.1.15,2013-08-08 10:45:00,
2013-08-08 04:50:00,49.1,47.7,29.91,SE,140,0.0,0.0,95,0.00,,,0.00,Wunderground v.1.15,2013-08-08 10:50:00,
2013-08-08 05:00:00,49.1,47.7,29.91,SE,140,0.0,0.0,95,0.00,,,0.00,Wunderground v.1.15,2013-08-08 11:00:00,
2013-08-08 05:10:00,49.2,47.8,29.91,SE,140,0.0,0.0,95,0.00,,,0.00,Wunderground v.1.15,2013-08-08 11:10:00,
2013-08-08 05:15:00,49.2,47.8,29.91,SE,140,0.0,0.0,95,0.00,,,0.00,Wunderground v.1.15,2013-08-08 11:15:00,
2013-08-08 05:25:00,49.1,47.7,29.91,SE,140,0.0,0.0,95,0.00,,,0.00,Wunderground v.1.15,2013-08-08 11:25:00,
2013-08-08 05:35:00,49.1,47.7,29.91,SE,140,0.0,0.0,95,0.00,,,0.00,Wunderground v.1.15,2013-08-08 11:35:00,
2013-08-08 05:45:00,49.1,47.7,29.91,SE,140,0.0,0.0,95,0.00,,,0.00,Wunderground v.1.15,2013-08-08 11:45:00,
2013-08-08 05:55:00,49.1,47.7,29.91,SE,140,0.0,0.0,95,0.00,,,0.00,Wunderground v.1.15,2013-08-08 11:55:00,
2013-08-08 06:05:00,49.1,47.7,29.91,SE,140,0.0,0.0,95,0.00,,,0.00,Wunderground v.1.15,2013-08-08 12:05:00,
2013-08-08 06:15:00,49.0,47.6,29.91,SE,140,0.0,0.0,95,0.00,,,0.00,Wunderground v.1.15,2013-08-08 12:15:00,
2013-08-08 06:20:00,49.0,47.6,29.91,SE,140,0.0,0.0,95,0.00,,,0.00,Wunderground v.1.15,2013-08-08 12:20:00,
2013-08-08 06:30:00,49.0,47.6,29.91,SE,140,0.0,0.0,95,0.00,,,0.00,Wunderground v.1.15,2013-08-08 12:30:00,
2013-08-08 06:40:00,49.0,47.6,29.91,SE,140,0.0,0.0,95,0.00,,,0.00,Wunderground v.1.15,2013-08-08 12:40:00,
2013-08-08 06:45:00,49.0,47.6,29.91,SE,140,0.0,0.0,95,0.00,,,0.00,Wunderground v.1.15,2013-08-08 12:45:00,
2013-08-08 06:55:00,49.1,47.7,29.92,SE,140,0.0,0.0,95,0.00,,,0.00,Wunderground v.1.15,2013-08-08 12:55:00,
2013-08-08 07:05:00,49.2,47.8,29.92,SE,140,0.0,0.0,95,0.00,,,0.00,Wunderground v.1.15,2013-08-08 13:05:00,
2013-08-08 07:15:00,49.2,47.8,29.92,SE,140,0.0,0.0,95,0.00,,,0.00,Wunderground v.1.15,2013-08-08 13:15:00,
2013-08-08 07:25:00,49.3,47.9,29.92,SE,140,0.0,0.0,95,0.00,,,0.00,Wunderground v.1.15,2013-08-08 13:25:00,
2013-08-08 07:30:00,49.4,48.3,29.92,SE,140,0.0,0.0,96,0.00,,,0.00,Wunderground v.1.15,2013-08-08 13:30:00,
2013-08-08 07:40:00,49.7,48.6,29.93,SE,140,0.0,0.0,96,0.00,,,0.00,Wunderground v.1.15,2013-08-08 13:40:00,
2013-08-08 07:50:00,50.0,48.9,29.94,SE,140,0.0,0.0,96,0.00,,,0.00,Wunderground v.1.15,2013-08-08 13:50:00,
2013-08-08 08:00:00,50.4,49.3,29.94,SE,140,0.0,0.0,96,0.00,,,0.00,Wunderground v.1.15,2013-08-08 14:00:00,
2013-08-08 08:10:00,50.5,49.4,29.94,SE,140,0.0,0.0,96,0.00,,,0.00,Wunderground v.1.15,2013-08-08 14:10:00,
2013-08-08 08:15:00,50.6,49.5,29.94,SE,140,0.0,0.0,96,0.00,,,0.00,Wunderground v.1.15,2013-08-08 14:15:00,
2013-08-08 08:25:00,51.2,50.1,29.94,SE,140,0.0,0.0,96,0.00,,,0.00,Wunderground v.1.15,2013-08-08 14:25:00,
2013-08-08 08:35:00,51.6,50.2,29.94,SE,140,0.0,0.0,95,0.00,,,0.00,Wunderground v.1.15,2013-08-08 14:35:00,
2013-08-08 08:40:00,52.2,50.5,29.94,SE,140,0.0,0.0,94,0.00,,,0.00,Wunderground v.1.15,2013-08-08 14:40:00,
2013-08-08 08:50:00,53.1,49.0,29.94,SE,140,0.0,0.0,86,0.00,,,0.00,Wunderground v.1.15,2013-08-08 14:50:00,
2013-08-08 09:00:00,54.1,50.0,29.94,SE,140,0.0,0.0,86,0.00,,,0.00,Wunderground v.1.15,2013-08-08 15:00:00,
2013-08-08 09:10:00,55.3,49.9,29.94,SE,140,0.0,0.0,82,0.00,,,0.00,Wunderground v.1.15,2013-08-08 15:10:00,
2013-08-08 09:15:00,55.7,50.3,29.94,SE,140,0.0,0.0,82,0.00,,,0.00,Wunderground v.1.15,2013-08-08 15:15:00,
2013-08-08 09:24:00,56.3,50.9,29.94,SE,140,0.0,0.0,82,0.00,,,0.00,Wunderground v.1.15,2013-08-08 15:24:00,
2013-08-08 09:30:00,56.6,50.5,29.94,SE,140,0.0,0.0,80,0.00,,,0.00,Wunderground v.1.15,2013-08-08 15:30:00,
2013-08-08 09:40:00,57.0,50.9,29.94,SE,140,0.0,0.0,80,0.00,,,0.00,Wunderground v.1.15,2013-08-08 15:40:00,
2013-08-08 09:50:00,57.3,51.5,29.95,SE,140,0.0,0.0,81,0.00,,,0.00,Wunderground v.1.15,2013-08-08 15:50:00,
2013-08-08 10:00:00,57.3,51.2,29.95,SE,140,0.0,0.0,80,0.00,,,0.00,Wunderground v.1.15,2013-08-08 16:00:00,
2013-08-08 10:10:00,57.3,50.8,29.95,SE,140,0.0,0.0,79,0.00,,,0.00,Wunderground v.1.15,2013-08-08 16:10:00,
2013-08-08 10:15:00,57.3,50.8,29.95,SE,140,0.0,0.0,79,0.00,,,0.00,Wunderground v.1.15,2013-08-08 16:15:00,
2013-08-08 10:25:00,57.4,50.9,29.95,SE,140,0.0,0.0,79,0.00,,,0.00,Wunderground v.1.15,2013-08-08 16:25:00,
2013-08-08 10:35:00,57.7,51.6,29.95,SE,143,0.0,0.0,80,0.00,,,0.00,Wunderground v.1.15,2013-08-08 16:35:00,
2013-08-08 10:40:00,57.9,51.8,29.95,SE,143,0.0,0.0,80,0.00,,,0.00,Wunderground v.1.15,2013-08-08 16:40:00,
2013-08-08 10:50:00,58.9,53.1,29.95,SSE,158,0.0,0.0,81,0.00,,,0.00,Wunderground v.1.15,2013-08-08 16:50:00,
2013-08-08 10:59:00,59.3,52.4,29.95,SE,135,0.0,0.0,78,0.00,,,0.00,Wunderground v.1.15,2013-08-08 16:59:00,
2013-08-08 11:05:00,59.6,52.7,29.95,SE,135,0.0,0.0,78,0.00,,,0.00,Wunderground v.1.15,2013-08-08 17:05:00,
2013-08-08 11:15:00,60.2,51.9,29.95,SE,135,0.0,0.0,74,0.00,,,0.00,Wunderground v.1.15,2013-08-08 17:15:00,
2013-08-08 11:25:00,59.8,52.2,29.95,SE,134,0.0,0.0,76,0.00,,,0.00,Wunderground v.1.15,2013-08-08 17:25:00,
2013-08-08 11:35:00,60.0,50.9,29.95,SE,134,0.0,0.0,72,0.00,,,0.00,Wunderground v.1.15,2013-08-08 17:35:00,
2013-08-08 11:45:00,60.3,51.6,29.95,SE,143,0.0,0.0,73,0.00,,,0.00,Wunderground v.1.15,2013-08-08 17:45:00,
2013-08-08 11:55:00,60.4,52.1,29.95,SSW,192,0.0,0.0,74,0.00,,,0.00,Wunderground v.1.15,2013-08-08 17:55:00,
2013-08-08 12:05:00,60.4,52.1,29.95,SSW,192,0.0,0.0,74,0.00,,,0.00,Wunderground v.1.15,2013-08-08 18:05:00,
2013-08-08 12:10:00,60.3,52.3,29.95,SSW,192,0.0,0.0,75,0.00,,,0.00,Wunderground v.1.15,2013-08-08 18:10:00,
2013-08-08 12:15:00,60.1,51.8,29.95,South,191,0.0,0.0,74,0.00,,,0.00,Wunderground v.1.15,2013-08-08 18:15:00,
2013-08-08 12:25:00,60.2,51.9,29.95,South,190,0.0,0.0,74,0.00,,,0.00,Wunderground v.1.15,2013-08-08 18:25:00,
2013-08-08 12:35:00,61.0,52.7,29.95,SSW,200,0.0,0.0,74,0.00,,,0.00,Wunderground v.1.15,2013-08-08 18:35:00,
2013-08-08 12:45:00,62.1,51.8,29.95,South,169,0.0,0.0,69,0.00,,,0.00,Wunderground v.1.15,2013-08-08 18:45:00,
2013-08-08 12:55:00,61.9,51.2,29.95,SSE,155,0.0,0.0,68,0.00,,,0.00,Wunderground v.1.15,2013-08-08 18:55:00,
2013-08-08 13:00:00,62.1,52.6,29.95,SSE,156,0.0,0.0,71,0.00,,,0.00,Wunderground v.1.15,2013-08-08 19:00:00,
2013-08-08 13:10:00,62.8,52.1,29.95,SSE,150,0.0,0.0,68,0.00,,,0.00,Wunderground v.1.15,2013-08-08 19:10:00,
2013-08-08 13:15:00,63.0,50.2,29.95,South,171,0.0,0.0,63,0.00,,,0.00,Wunderground v.1.15,2013-08-08 19:15:00,
2013-08-08 13:25:00,63.4,52.2,29.95,South,171,0.0,0.0,67,0.00,,,0.00,Wunderground v.1.15,2013-08-08 19:25:00,
2013-08-08 13:35:00,63.0,52.3,29.96,SSW,193,0.0,0.0,68,0.00,,,0.00,Wunderground v.1.15,2013-08-08 19:35:00,
2013-08-08 13:45:00,61.9,48.7,29.96,SSW,196,0.0,0.0,62,0.00,,,0.00,Wunderground v.1.15,2013-08-08 19:45:00,
2013-08-08 13:55:00,61.4,46.9,29.97,SSW,196,0.0,0.0,59,0.00,,,0.00,Wunderground v.1.15,2013-08-08 19:55:00,
2013-08-08 14:05:00,61.1,46.2,29.97,SSW,196,0.0,0.0,58,0.00,,,0.00,Wunderground v.1.15,2013-08-08 20:05:00,
2013-08-08 14:15:00,60.7,47.6,29.98,SSW,196,0.0,0.0,62,0.00,,,0.00,Wunderground v.1.15,2013-08-08 20:15:00,
2013-08-08 14:25:00,60.0,49.4,29.99,SSW,196,0.0,0.0,68,0.00,,,0.00,Wunderground v.1.15,2013-08-08 20:25:00,
2013-08-08 14:35:00,59.0,50.4,29.99,SSW,196,0.0,0.0,73,0.00,,,0.00,Wunderground v.1.15,2013-08-08 20:35:00,
2013-08-08 14:40:00,58.1,49.5,29.99,SSW,196,0.0,0.0,73,0.00,,,0.00,Wunderground v.1.15,2013-08-08 20:40:00,
2013-08-08 14:50:00,57.1,51.0,29.99,SE,146,0.0,0.0,80,0.00,,,0.00,Wunderground v.1.15,2013-08-08 20:50:00,
2013-08-08 14:59:00,56.3,50.9,30.00,ESE,121,0.0,0.0,82,0.00,,,0.01,Wunderground v.1.15,2013-08-08 20:59:00,
2013-08-08 15:05:00,56.1,49.3,30.00,WNW,282,0.0,0.0,78,0.00,,,0.01,Wunderground v.1.15,2013-08-08 21:05:00,
2013-08-08 15:15:00,56.2,50.4,30.01,SSW,194,0.0,0.0,81,0.00,,,0.01,Wunderground v.1.15,2013-08-08 21:15:00,
2013-08-08 15:24:00,56.0,50.6,30.01,NNE,32,0.0,0.0,82,0.00,,,0.01,Wunderground v.1.15,2013-08-08 21:24:00,
2013-08-08 15:30:00,55.9,50.5,30.02,ENE,70,0.0,0.0,82,0.00,,,0.01,Wunderground v.1.15,2013-08-08 21:30:00,
2013-08-08 15:44:00,54.9,49.5,30.02,ENE,70,0.0,0.0,82,0.00,,,0.02,Wunderground v.1.15,2013-08-08 21:44:00,
2013-08-08 15:50:00,54.4,49.0,30.02,NW,306,0.0,0.0,82,0.00,,,0.02,Wunderground v.1.15,2013-08-08 21:50:00,
2013-08-08 16:00:00,53.7,49.3,30.03,NW,306,0.0,0.0,85,0.00,,,0.03,Wunderground v.1.15,2013-08-08 22:00:00,
2013-08-08 16:09:00,53.3,49.5,30.03,NW,306,0.0,0.0,87,0.05,,,0.04,Wunderground v.1.15,2013-08-08 22:09:00,
2013-08-08 16:15:00,53.0,49.5,30.04,NW,306,0.0,0.0,88,0.06,,,0.05,Wunderground v.1.15,2013-08-08 22:15:00,
2013-08-08 16:25:00,52.7,49.2,30.03,NW,306,0.0,0.0,88,0.06,,,0.05,Wunderground v.1.15,2013-08-08 22:25:00,
2013-08-08 16:35:00,52.6,49.4,30.03,NW,306,0.0,0.0,89,0.00,,,0.05,Wunderground v.1.15,2013-08-08 22:35:00,
2013-08-08 16:45:00,52.6,50.0,30.03,NW,306,0.0,0.0,91,0.00,,,0.05,Wunderground v.1.15,2013-08-08 22:45:00,
2013-08-08 16:55:00,52.6,50.0,30.02,NW,306,0.0,0.0,91,0.00,,,0.05,Wunderground v.1.15,2013-08-08 22:55:00,
2013-08-08 17:05:00,52.8,50.2,30.03,NW,306,0.0,0.0,91,0.00,,,0.05,Wunderground v.1.15,2013-08-08 23:05:00,
2013-08-08 17:15:00,53.0,50.4,30.03,NW,306,0.0,0.0,91,0.00,,,0.05,Wunderground v.1.15,2013-08-08 23:15:00,
2013-08-08 17:30:00,53.5,51.2,30.02,NW,306,0.0,0.0,92,0.00,,,0.05,Wunderground v.1.15,2013-08-08 23:30:00,
2013-08-08 17:40:00,53.7,51.1,30.01,NW,306,0.0,0.0,91,0.00,,,0.05,Wunderground v.1.15,2013-08-08 23:40:00,
2013-08-08 17:50:00,53.9,50.7,30.00,NW,306,0.0,0.0,89,0.00,,,0.05,Wunderground v.1.15,2013-08-08 23:50:00,
2013-08-08 18:00:00,54.2,51.3,30.00,NW,306,0.0,0.0,90,0.00,,,0.05,Wunderground v.1.15,2013-08-09 00:00:00,
2013-08-08 18:10:00,54.5,51.0,30.00,NW,306,0.0,0.0,88,0.00,,,0.05,Wunderground v.1.15,2013-08-09 00:10:00,
2013-08-08 18:15:00,54.6,50.8,30.00,NW,306,0.0,0.0,87,0.00,,,0.05,Wunderground v.1.15,2013-08-09 00:15:00,
2013-08-08 18:24:00,54.8,51.6,30.01,NW,306,0.0,0.0,89,0.00,,,0.05,Wunderground v.1.15,2013-08-09 00:24:00,
2013-08-08 18:35:00,54.9,51.4,30.01,NW,306,0.0,0.0,88,0.00,,,0.05,Wunderground v.1.15,2013-08-09 00:35:00,
2013-08-08 18:45:00,54.8,51.3,30.01,NW,306,0.0,0.0,88,0.00,,,0.05,Wunderground v.1.15,2013-08-09 00:45:00,
2013-08-08 18:55:00,55.0,52.1,30.01,NW,306,0.0,0.0,90,0.00,,,0.05,Wunderground v.1.15,2013-08-09 00:55:00,
2013-08-08 19:05:00,55.1,52.2,30.01,NW,306,0.0,0.0,90,0.00,,,0.05,Wunderground v.1.15,2013-08-09 01:05:00,
2013-08-08 19:15:00,55.2,52.0,30.01,NW,306,0.0,0.0,89,0.00,,,0.05,Wunderground v.1.15,2013-08-09 01:15:00,
2013-08-08 19:20:00,55.2,52.0,30.01,NW,306,0.0,0.0,89,0.00,,,0.05,Wunderground v.1.15,2013-08-09 01:20:00,
2013-08-08 19:30:00,55.2,52.0,30.01,NW,306,0.0,0.0,89,0.00,,,0.05,Wunderground v.1.15,2013-08-09 01:30:00,
2013-08-08 19:40:00,55.3,52.1,30.01,NW,306,0.0,0.0,89,0.00,,,0.05,Wunderground v.1.15,2013-08-09 01:40:00,
2013-08-08 19:50:00,55.1,51.9,30.01,NW,306,0.0,0.0,89,0.00,,,0.05,Wunderground v.1.15,2013-08-09 01:50:00,
2013-08-08 20:00:00,55.0,52.1,30.00,NW,306,0.0,0.0,90,0.00,,,0.05,Wunderground v.1.15,2013-08-09 02:00:00,
2013-08-08 20:10:00,54.8,51.9,30.00,NW,306,0.0,0.0,90,0.00,,,0.05,Wunderground v.1.15,2013-08-09 02:10:00,
2013-08-08 20:20:00,54.6,51.7,29.99,NW,306,0.0,0.0,90,0.00,,,0.05,Wunderground v.1.15,2013-08-09 02:20:00,
2013-08-08 20:30:00,54.2,51.3,30.00,NW,306,0.0,0.0,90,0.00,,,0.05,Wunderground v.1.15,2013-08-09 02:30:00,
2013-08-08 20:44:00,53.5,50.9,30.00,NW,306,0.0,0.0,91,0.00,,,0.05,Wunderground v.1.15,2013-08-09 02:44:00,
2013-08-08 20:55:00,53.1,50.5,30.01,NW,306,0.0,0.0,91,0.00,,,0.05,Wunderground v.1.15,2013-08-09 02:55:00,
2013-08-08 21:09:00,52.6,50.0,30.02,NW,306,0.0,0.0,91,0.00,,,0.05,Wunderground v.1.15,2013-08-09 03:09:00,
2013-08-08 21:15:00,52.5,49.9,30.02,NW,306,0.0,0.0,91,0.00,,,0.05,Wunderground v.1.15,2013-08-09 03:15:00,
2013-08-08 21:25:00,52.3,50.0,30.02,NW,306,0.0,0.0,92,0.00,,,0.05,Wunderground v.1.15,2013-08-09 03:25:00,
2013-08-08 21:34:00,52.1,49.8,30.03,NW,306,0.0,0.0,92,0.00,,,0.05,Wunderground v.1.15,2013-08-09 03:34:00,
2013-08-08 21:40:00,52.0,49.7,30.03,NW,306,0.0,0.0,92,0.00,,,0.05,Wunderground v.1.15,2013-08-09 03:40:00,
2013-08-08 21:50:00,51.8,49.5,30.03,NW,306,0.0,0.0,92,0.00,,,0.05,Wunderground v.1.15,2013-08-09 03:50:00,
2013-08-08 22:00:00,51.7,49.5,30.03,NW,306,0.0,0.0,92,0.00,,,0.05,Wunderground v.1.15,2013-08-09 04:00:00,
2013-08-08 22:05:00,51.5,49.3,30.03,NW,306,0.0,0.0,92,0.00,,,0.05,Wunderground v.1.15,2013-08-09 04:05:00,
2013-08-08 22:10:00,51.5,49.3,30.03,NW,306,0.0,0.0,92,0.00,,,0.05,Wunderground v.1.15,2013-08-09 04:10:00,
2013-08-08 22:15:00,51.4,49.2,30.03,NW,306,0.0,0.0,92,0.00,,,0.05,Wunderground v.1.15,2013-08-09 04:15:00,
2013-08-08 22:25:00,51.1,48.9,30.03,NW,306,0.0,0.0,92,0.00,,,0.05,Wunderground v.1.15,2013-08-09 04:25:00,
2013-08-08 22:35:00,50.9,48.7,30.03,NW,306,0.0,0.0,92,0.00,,,0.05,Wunderground v.1.15,2013-08-09 04:35:00,
2013-08-08 22:39:00,50.8,48.6,30.03,NW,306,0.0,0.0,92,0.00,,,0.05,Wunderground v.1.15,2013-08-09 04:39:00,
2013-08-08 22:45:00,50.6,48.4,30.02,NW,306,0.0,0.0,92,0.00,,,0.05,Wunderground v.1.15,2013-08-09 04:45:00,
2013-08-08 22:55:00,50.3,48.1,30.03,NW,306,0.0,0.0,92,0.00,,,0.05,Wunderground v.1.15,2013-08-09 04:55:00,
2013-08-08 23:05:00,50.0,47.8,30.03,NW,306,0.0,0.0,92,0.00,,,0.05,Wunderground v.1.15,2013-08-09 05:05:00,
2013-08-08 23:15:00,49.6,47.4,30.04,NW,306,0.0,0.0,92,0.00,,,0.05,Wunderground v.1.15,2013-08-09 05:15:00,
2013-08-08 23:24:00,49.3,47.1,30.04,NW,306,0.0,0.0,92,0.00,,,0.05,Wunderground v.1.15,2013-08-09 05:24:00,
2013-08-08 23:30:00,49.1,46.9,30.04,NW,306,0.0,0.0,92,0.00,,,0.05,Wunderground v.1.15,2013-08-09 05:30:00,
2013-08-08 23:40:00,48.8,46.6,30.05,NW,306,0.0,0.0,92,0.00,,,0.05,Wunderground v.1.15,2013-08-09 05:40:00,
2013-08-08 23:50:00,48.6,46.4,30.05,NW,306,0.0,0.0,92,0.00,,,0.05,Wunderground v.1.15,2013-08-09 05:50:00,